{"data":{"norad_id":56996,"intl_designator":"2023-084BY","name":"AAC-AIS-SAT2","alt_names":[],"object_type":"PAYLOAD","status":"ACTIVE","operator":null,"country":"UK","launch_date":"2023-06-12","launch_site_code":"AFWTR","launch_vehicle":null,"mission":null,"orbit_class":"UNKNOWN","rcs_meters":null,"size_class":null,"mass_kg":null,"dimensions":null,"purposes":[],"wikipedia_slug":null,"has_3d_model":false,"image_url":null,"decayed_at":null,"tle_current":{"epoch":"2026-09-21T22:37:09.167808Z","epoch_age_seconds":75544,"freshness":"FRESH","line1":"1 56996U 23084BY  26264.94246722  .00002436  00000+0  27801-3 0  9993","line2":"2 56996  98.1618  47.2001 0057201 142.3787 218.1450 14.85917129167744","mean_motion":14.85917129,"eccentricity":0.0057201,"inclination_deg":98.1618,"raan_deg":47.2001,"arg_perigee_deg":142.3787,"mean_anomaly_deg":218.145,"bstar":0.00027801,"rev_number":16774,"period_min":96.90984590568,"perigee_km":570.7317459278,"apogee_km":650.68553784008,"semimajor_km":6988.8456418839,"source":"CELESTRAK","updated_at":"2026-09-22T09:00:25.996941Z"}}}